Home   Weather   Neunkirchen (Saar)   Past weeks

Flag for Germany Past Weather in Neunkirchen (Saar), Saarland, Germany — Yesterday and Last 2 Weeks

Now
41 °F

Clear.


Feels Like: 41 °F
Forecast: 33 / 51 °F
Wind: 1 mph from North

Location: Saarbruecken / Ensheim

Current Time: Apr 25, 2017 at 3:04:38 am

Latest Report: Apr 25, 2017 at 2:20 am


Visibility: N/A

Pressure: 29.77 "Hg

Humidity: 76%

Dew Point: 34 °F

Location of Neunkirchen (Saar)Location

Past Weather in Neunkirchen (Saar) — Graph

°F

Neunkirchen (Saar) Temperature Yesterday

Maximum temperature yesterday: 61 °F (at 3:20 pm)
Minimum temperature yesterday: 34 °F (at 2:50 am)
Average temperature yesterday: 49 °F

High & Low Weather Summary for the Past Weeks

 TemperatureHumidityPressure
High70 °F (Apr 10, 12:50 pm)100% (Apr 16, 5:50 am)30.57 "Hg (Apr 16, 5:50 am)
Low27 °F (Apr 20, 6:20 am)28% (Apr 20, 5:50 pm)29.77 "Hg (Apr 25, 12:50 am)
Average46 °F64%30.18 "Hg
* Reported Apr 10 1:20 am — Apr 25 1:50 am, Neunkirchen (Saar), Weather by CustomWeather, © 2017

Note: Actual official high and low records may vary slightly from our data, if they occured in-between our weather recording intervals... More about our weather records

Advertising

Neunkirchen (Saar) Weather History for the Previous 24 Hours

Scroll right to see more
 ConditionsComfort  
Time TempWeatherWind HumidityBarometerVisibility
1:50 am
Tue, Apr 25
41 °FClear.No wind70%29.77 "HgN/A
12:50 am46 °FClear.6 mph57%29.77 "HgN/A
12:20 am48 °FClear.7 mph54%29.80 "HgN/A
11:50 pm
Mon, Apr 24
48 °FClear.6 mph58%29.80 "HgN/A
11:20 pm48 °FClear.7 mph54%29.80 "Hg10 mi
10:50 pm48 °FClear.7 mph54%29.80 "Hg10 mi
10:20 pm48 °FClear.1 mph54%29.80 "Hg10 mi
9:50 pm50 °FClear.3 mph50%29.80 "Hg10 mi
9:20 pm52 °FClear.3 mph47%29.80 "Hg10 mi
8:50 pm54 °FPassing clouds.6 mph41%29.83 "HgN/A
8:20 pm57 °FSunny.7 mph36%29.83 "Hg10 mi
7:50 pm59 °FSunny.9 mph34%29.83 "Hg10 mi
7:20 pm59 °FSunny.9 mph31%29.83 "Hg10 mi
6:50 pm61 °FSunny.10 mph31%29.86 "Hg10 mi
6:20 pm61 °FPassing clouds.12 mph31%29.86 "HgN/A
5:50 pm61 °FSunny.10 mph31%29.86 "Hg10 mi
5:20 pm61 °FPassing clouds.9 mph31%29.89 "HgN/A
4:50 pm61 °FPassing clouds.8 mph31%29.89 "HgN/A
4:20 pm61 °FPassing clouds.9 mph31%29.92 "HgN/A
3:50 pm61 °FPassing clouds.7 mph29%29.92 "HgN/A
3:20 pm61 °FPassing clouds.6 mph31%29.95 "HgN/A
2:50 pm59 °FPassing clouds.7 mph29%29.95 "HgN/A
2:20 pm59 °FSunny.5 mph34%29.98 "Hg10 mi
1:50 pm57 °FSunny.5 mph33%29.98 "Hg10 mi
1:20 pm57 °FPassing clouds.6 mph36%30.01 "HgN/A
12:50 pm55 °FSunny.3 mph41%30.01 "Hg10 mi
12:20 pm55 °FSunny.3 mph36%30.04 "Hg10 mi
11:50 am54 °FSunny.3 mph35%30.04 "Hg10 mi
11:20 am52 °FSunny.3 mph41%30.04 "Hg10 mi
10:50 am52 °FSunny.3 mph44%30.04 "Hg10 mi
10:20 am50 °FPassing clouds.3 mph43%30.07 "HgN/A
9:50 am48 °FSunny.3 mph50%30.07 "Hg10 mi
9:20 am46 °FPassing clouds.3 mph53%30.07 "HgN/A
8:50 am43 °FPassing clouds.6 mph61%30.07 "HgN/A
8:20 am43 °FPassing clouds.6 mph61%30.09 "HgN/A
7:50 am39 °FSunny.6 mph65%30.09 "Hg10 mi
7:20 am37 °FSunny.7 mph70%30.09 "Hg10 mi
6:50 am34 °FSunny.7 mph75%30.09 "Hg10 mi
5:50 am34 °FClear.7 mph75%30.09 "Hg10 mi
4:50 am34 °FClear.6 mph75%30.12 "Hg10 mi
4:20 am34 °FClear.6 mph75%30.12 "Hg10 mi
3:50 am34 °FClear.7 mph75%30.12 "Hg10 mi
3:20 am34 °FClear.6 mph75%30.15 "HgN/A
Weather by CustomWeather, © 2017

See weather overviewHow to use our weather pages